Regional Weather Roundup
Issued by NWS

Home | Current Version | Previous Version | Graphics & Text | Print | Product List | Glossary On
Versions: 1 2 3 4 5 6 7 8 9 10 11 12 13 14 15 16 17 18 19 20 21 22 23 24 25 26 27 28 29 30 31 32 33 34 35 36 37 38 39 40 41 42 43 44 45 46 47 48 49 50
000
ASUS43 KLOT 241706
RWRIL

ILLINOIS REGIONAL WEATHER ROUNDUP
NATIONAL WEATHER SERVICE CHICAGO/ROMEOVILLE IL
1200 PM CDT THU APR 24 2014

NOTE: "FAIR" INDICATES FEW OR NO CLOUDS BELOW 12,000 FEET WITH NO
SIGNIFICANT WEATHER AND/OR OBSTRUCTIONS TO VISIBILITY.

* THESE STATIONS ARE NOT UNDER NWS QUALITY CONTROL. THEY ALSO MAY NOT
  REPORT WEATHER SUCH AS PRECIPITATION OR FOG.

ILZ001-002-007-009-015-016-024-241800-
NORTHWEST ILLINOIS

CITY           SKY/WX    TMP DP  RH WIND       PRES   REMARKS
MOLINE         CLOUDY    65  39  38 S20G28    29.74F
STERLING*      CLOUDY    63  37  39 SE15G26   29.79F
SAVANNA*       CLOUDY    61  37  41 SE25      29.76F
$$

ILZ003-004-008-010-011-017-018-241800-
NORTH CENTRAL ILLINOIS

CITY           SKY/WX    TMP DP  RH WIND       PRES   REMARKS
ROCKFORD       CLOUDY    62  39  42 S29G39    29.84F
FREEPORT*      CLOUDY    56  38  50 SE28G36   29.79F
ROCHELLE*      PTSUNNY   61  35  38 SE33G39   29.82F
DE KALB*       PTSUNNY   58  37  45 SE24G35   29.87F
PERU*          PTSUNNY   62  36  38 SE23G31   29.84F
$$

ILZ005-006-012>014-019>023-241800-
NORTHEAST ILLINOIS

CITY           SKY/WX    TMP DP  RH WIND       PRES   REMARKS
CHICAGO-OHARE  CLOUDY    60  35  39 SE25G32   29.90F
CHICAGO-MIDWAY CLOUDY    61  37  41 S17G28    29.92F
AURORA         PTSUNNY   61  38  42 SE23G36   29.89F
LANSING*       CLOUDY    60  34  38 SE17G25   29.93F
JOLIET*        CLOUDY    60  37  41 S18G25    29.91F
WAUKEGAN       CLOUDY    51  36  56 SE13G22   29.92F
DUPAGE AIRPORT CLOUDY    61  38  42 S20G33    29.89F
KANKAKEE*      PTSUNNY   64  40  41 SE18      29.92F
WHEELING       CLOUDY    59  37  44 SE13G24   29.91F
MORRIS*        CLOUDY    63  32  31 SE20G28   29.89F
ROMEOVILLE*    CLOUDY    60  36  41 S23G32    29.90F
NORTHERLY ISL    N/A     53  41  63 SE13        N/A
$$

LMZ740>746-241800-
SOUTHERN LAKE MICHIGAN

STATION/POSITION SKY/WX   TEMP    WIND        PRES    VSBY  WAVE
                          AIR SEA DIR/SP/G                  HT/PER
                          (F)     (DEG/KT/KT) (MB)    (MI)  (FT/S)
WAUKEGAN HARBOR            44     130/ 13/ 15 1014.9F
HARRISON CRIB              49     130/ 16/ 18   N/A
BURNHAM HARBOR             54     120/ 10/ 14   N/A
CALUMET HARBOR             59     150/ 13/ 17 1014.3F
MICHIGAN CITY              58     130/ 18/ 24   N/A
$$

ILZ025>027-034>036-040-047-049-050-058-095>099-241800-
WEST-CENTRAL ILLINOIS

CITY           SKY/WX    TMP DP  RH WIND       PRES   REMARKS
QUINCY         CLOUDY    65  40  39 S13       29.76S
GALESBURG*     LGT RAIN  61  40  46 SE13G23   29.77S
MACOMB*        CLOUDY    64  36  35 S21       29.79F
JACKSONVILLE*  CLOUDY    68  40  35 SE20G29   29.79F
PITTSFIELD*    CLOUDY    69  38  31 S14       29.78S
$$

ILZ028>032-037-038-041>044-048-051>054-059>061-241800-
CENTRAL ILLINOIS

CITY           SKY/WX    TMP DP  RH WIND       PRES   REMARKS
PONTIAC        PTSUNNY   66  36  32 SE23      29.87F
BLOOMINGTON    CLOUDY    63  34  33 S26G35    29.86F
DECATUR        CLOUDY    65  37  35 SE18      29.87F
PEORIA         PTSUNNY   68  37  32 SE18G26   29.81F
LACON*         PTSUNNY   61  37  39 S22       29.82F
LINCOLN*       CLOUDY    65  35  32 SE17G28   29.83F
SPRINGFIELD    CLOUDY    67  38  34 S18G25    29.83F
TAYLORVILLE    CLOUDY    66  37  34 SE16G25   29.84F
$$

ILZ033-039-045-046-055>057-062-063-241800-
EAST-CENTRAL ILLINOIS

CITY           SKY/WX    TMP DP  RH WIND       PRES   REMARKS
CHAMPAIGN      CLOUDY    66  35  31 SE22G31   29.90F
RANTOUL*       PTSUNNY   64  32  30 S16G24    29.91S
MATTOON        PTSUNNY   65  32  29 MISG      29.89F
PARIS*         PTSUNNY   63  37  38 SE18      29.92F
$$

ILZ079-100>102-241800-
SOUTHWEST ILLINOIS

CITY           SKY/WX    TMP DP  RH WIND       PRES   REMARKS
ALTON          MOSUNNY   70  43  37 S17       29.83S
BELLEVILLE     PTSUNNY   71  45  39 S14G22    29.83F
CAHOKIA*       MOSUNNY   72  43  35 SE15G22   29.82F
SPARTA*        PTSUNNY   70  41  35 S10G18    29.85F
$$

ILZ064>066-069>071-074>076-080>082-084>086-088>090-092>094-241800-
SOUTH-CENTRAL ILLINOIS

CITY           SKY/WX    TMP DP  RH WIND       PRES   REMARKS
CARBONDALE     MOSUNNY   72  44  36 S14G24    29.85F
CAIRO*         PTSUNNY   76  40  26 S16G22    29.87S
MARION         PTSUNNY   73  43  33 S15       29.87F
MT. VERNON     SUNNY    N/A N/A N/A E8G16     29.87F
CENTRALIA*     SUNNY     70  39  32 SE15      29.85F
SALEM*         SUNNY     68  42  38 SE9       29.86F
METROPOLIS*    MOSUNNY   74  35  24 S8        29.87F
$$

ILZ067-068-072-073-078-083-087-091-241800-
SOUTHEAST ILLINOIS

CITY           SKY/WX    TMP DP  RH WIND       PRES   REMARKS
FLORA*         MOSUNNY   68  38  34 SE15      29.89F
FAIRFIELD*     SUNNY     70  45  40 SE12      29.89F
HARRISBURG*    SUNNY     73  40  30 SE8       29.89F
ROBINSON*      PTSUNNY   66  42  40 SE16      29.92F
CARMI*         SUNNY     70  43  37 SE14      29.89F
$$

ABBREVIATIONS USED IN REMARKS
   TC - TEMPERATURE IN CELSIUS
  WCI - WIND CHILL INDEX
   HX - HEAT INDEX
  VSB - VISIBILITY
$$




USA.gov is the U.S. government's official web portal to all federal, state and local government web resources and services.